Zurück zum Katalog

SL-16 DEB

AktivLEO
NORAD 22496·DEBRIS·🇷🇺 Russia

Gestartet Dec 25, 1992 von Baikonur Cosmodrome

Loading…

Nächste Überflüge (nächste 24 Stunden)

TLE

AktuellSource: Space-Track

Epoche: Sep 14, 2026, 12:12 UTC

1 22496U 92093GF  26257.50840015  .00000052  00000-0  65601-4 0  9990
2 22496  71.2130 266.6600 0091780 258.5548 264.5480 13.97916490715301

Verfolge SL-16 DEB in Echtzeit mit AllMySat

Download on the App Store